Location: Enikep?du
(16.5133°N, 80.7066°E)
Time: 03:29:39
(UTC+00:00)

Cosmos 923 Rocket - Pass Details

Date: 20 January 2020
Orbit: 757 x 786 km, 74.0° (Epoch: 17 February)

Event Time Altitude Azimuth Distance (km) Brightness Sun altitude
Rises 00:00:10 0° 196° (SSW) 3,206 7.2 -16.5°
Reaches altitude 10° 00:02:32 10° 198° (SSW) 2,285 6.5 -16.0°
Maximum altitude 00:07:42 76° 284° (WNW) 788 3.9 -14.8°
Drops below altitude 10° 00:12:56 10° 9° (N) 2,306 6.4 -13.6°
Sets 00:15:19 0° 11° (N) 3,238 7.2 -13.1°
